Location: Kellogg
(38.0159°N, 90.0546°W)
Time: 14:52:58
(UTC+00:00)

Transit 2A Rocket - Visible Passes

Search period start: 13 September 2024 00:00
Search period end: 23 September 2024 00:00
Orbit: 582 x 910 km, 66.7° (Epoch: 12 September)

Date Brightness Start Highest point End Pass type
(mag) Time Alt. Az. Time Alt. Az. Time Alt. Az.
13 Sep 7.9 07:44:11 12° NNW 07:44:11 12° NNW 07:45:12 10° N visible
14 Sep 8.0 07:00:58 13° N 07:00:58 13° N 07:01:44 10° N visible
15 Sep 8.2 06:17:44 11° NNE 06:17:44 11° NNE 06:17:52 10° NNE visible
20 Sep 8.2 11:13:30 10° NNE 11:14:05 10° NE 11:14:41 10° NE visible
